Simultaneous Nadir Overpasses (SNOs) Predictions

Prediction of SNOs between GOES-15 and TERRA Satellite Orbit:

Table of predicted SNOs for the next 14.0 days since TLE Epoch: 3/9/2024
Index Date Time (GOES-15) GOES-15 Lat,Lon TERRA Lat,Lon Distance(km) Time Diff (sec)
1 03/09/2024 05:41:44 -0.01, 61.26 -0.37, 63.06 204.77 80
2 03/09/2024 18:01:54 0.02, 61.22 -0.63, 58.16 348.22 80
3 03/11/2024 17:42:15 0.01, 61.21 0.25, 62.25 118.63 80
4 03/12/2024 06:02:16 -0.02, 61.24 0.82, 57.39 438.91 80
5 03/14/2024 05:47:57 -0.02, 61.24 -0.09, 61.48 27.74 80
6 03/16/2024 05:30:57 -0.02, 61.24 -0.95, 65.58 493.78 80
7 03/16/2024 17:51:06 0.03, 61.20 -0.08, 60.68 58.93 80
8 03/18/2024 17:31:25 0.03, 61.20 0.75, 64.79 406.61 80
9 03/19/2024 05:51:26 -0.04, 61.25 0.25, 59.92 151.79 80
10 03/21/2024 05:37:06 -0.03, 61.25 -0.60, 64.02 314.11 80
11 03/21/2024 17:57:14 0.04, 61.21 -0.41, 59.12 237.80 80
